Location: Sweet Grass
(48.9965°N, 111.9649°W)
Time: 07:38:28
(UTC+00:00)

N. Korean satellite - Pass Details

Date: 05 December 2022
Orbit: 407 x 442 km, 97.3° (Epoch: 04 February)

Event Time Altitude Azimuth Distance (km) Brightness Sun altitude
Rises 12:11:51 0° 23° (NNE) 2,517 10.4 -27.5°
Reaches altitude 10° 12:14:09 10° 36° (NE) 1,630 9.6 -27.1°
Maximum altitude 12:17:10 26° 95° (E) 939 8.6 -26.6°
Drops below altitude 10° 12:20:07 10° 154° (SSE) 1,596 9.5 -26.1°
Sets 12:22:20 0° 168° (SSE) 2,453 10.4 -25.8°
